Terug naar catalogus

STARLINK-32710

ActiefCommunicatieVLEO
NORAD 62604·PAYLOAD·🇺🇸 United States

Gelanceerd Jan 13, 2025 vanaf Cape Canaveral Space Force Station

Loading…

Volgende Passages (komende 24 uur)

TLE

VersSource: CelesTrak SupGP

Epoch: Sep 15, 2026, 03:00 UTC

1 62604C 25008T   26258.12548611  .00008090  00000+0  29296-3 0  2589
2 62604  43.0023 287.7554 0001645 268.2169 320.2092 15.27581882    16

Volg STARLINK-32710 in realtime met AllMySat

Download on the App Store